Stations météo

réclame
Mon MeteoGroup
Terschelling/Hoorn, Pays-Bas (6251): Température de l'air & dewpoint: 16.02.2020 17:00:00 - 22.02.2020 17:00:00 (CET)Terschelling/Hoorn, Pays-Bas (6251): Température de l'air 5cm: 16.02.2020 17:00:00 - 22.02.2020 17:00:00 (CET)Terschelling/Hoorn, Pays-Bas (6251): Vitesse du vent & gusts: 16.02.2020 17:00:00 - 22.02.2020 17:00:00 (CET)Terschelling/Hoorn, Pays-Bas (6251): Direction du vent: 16.02.2020 17:00:00 - 22.02.2020 17:00:00 (CET)Terschelling/Hoorn, Pays-Bas (6251): reduced air pressure: 16.02.2020 17:00:00 - 22.02.2020 17:00:00 (CET)Terschelling/Hoorn, Pays-Bas (6251): visibility: 16.02.2020 17:00:00 - 22.02.2020 17:00:00 (CET)Terschelling/Hoorn, Pays-Bas (6251): Quantités de précipitations: 16.02.2020 17:00:00 - 22.02.2020 17:00:00 (CET)
Date & Time tt [°C] td [°C] tt 5cm [°C] ff [km/h] ff [knt] fx [km/h] fx [knt] dd ppp [hPa] vv [km] rr [mm]
22.02.2020 17:00:00 9,0 4,4 8,3 43 23 61 33 W 1012,5 15 0,0
22.02.2020 16:00:00 8,5 6,7 8,3 40 21 58 31 WSW 1012,0 12 0,0
22.02.2020 15:00:00 8,7 6,0 8,5 40 21 61 33 WSW 1011,2 16 0,0
22.02.2020 14:00:00 9,1 6,1 8,8 47 25 61 33 W 1010,9 15 0,2
22.02.2020 13:00:00 9,1 7,6 8,8 47 25 72 39 WSW 1010,2 7 1,4
22.02.2020 12:00:00 8,8 7,6 8,6 58 31 83 45 WSW 1009,0 3,2 0,3
22.02.2020 11:00:00 9,1 7,0 8,8 65 35 83 45 SW 1008,6 7 0,0
22.02.2020 10:00:00 9,0 6,6 8,6 65 35 86 47 SW 1008,5 8 0,0
22.02.2020 09:00:00 8,5 6,2 8,1 65 35 86 47 SW 1008,3 7 0,0
22.02.2020 08:00:00 8,2 6,2 7,7 61 33 86 47 SW 1008,8 7 0,0
22.02.2020 07:00:00 8,1 6,2 7,5 65 35 83 45 SW 1009,1 7 0,1
22.02.2020 06:00:00 7,8 6,2 7,4 61 33 83 45 SW 1009,7 5 0,3
22.02.2020 05:00:00 7,9 5,8 7,5 58 31 76 41 SW 1010,2 9 0,0
22.02.2020 04:00:00 8,1 5,7 7,7 61 33 72 39 SW 1011,4 10 0,0
22.02.2020 03:00:00 8,2 5,7 7,8 58 31 72 39 SW 1011,9 10 0,0
22.02.2020 02:00:00 8,0 5,8 7,6 50 27 65 35 SW 1013,0 10 0,0
22.02.2020 01:00:00 7,9 6,2 7,5 50 27 68 37 SW 1014,3 8 0,0
22.02.2020 00:00:00 7,8 6,1 7,3 50 27 68 37 SW 1014,7 8 0,0
21.02.2020 23:00:00 7,8 6,1 7,4 54 29 68 37 SW 1015,1 8 0,0
21.02.2020 22:00:00 7,8 6,0 7,4 50 27 72 39 SW 1015,9 8 0,0
21.02.2020 21:00:00 7,7 6,1 7,2 54 29 68 37 SW 1016,5 8 0,1
21.02.2020 20:00:00 7,6 6,0 7,2 50 27 68 37 SW 1016,6 7 0,1
21.02.2020 19:00:00 7,6 5,8 7,0 50 27 65 35 SW 1017,1 9 0,1
21.02.2020 18:00:00 7,4 5,1 6,9 50 27 72 39 SW 1017,8 9 0,0
21.02.2020 17:00:00 7,6 4,9 7,0 50 27 65 35 SW 1017,8 11 0,1
21.02.2020 16:00:00 7,3 4,9 7,0 54 29 68 37 SW 1018,0 9 0,0
21.02.2020 15:00:00 7,5 4,8 7,3 47 25 61 33 SW 1018,3 12 0,0
21.02.2020 14:00:00 7,6 5,0 7,5 47 25 58 31 SW 1018,6 13 0,0
21.02.2020 13:00:00 7,5 4,9 7,5 40 21 54 29 SW 1019,5 11 0,0
21.02.2020 12:00:00 7,0 4,3 7,0 36 19 47 25 WSW 1019,6 12 0,0
21.02.2020 11:00:00 6,9 3,8 6,7 36 19 47 25 WSW 1019,6 14 0,0
21.02.2020 10:00:00 6,8 3,3 6,1 32 18 47 25 WSW 1019,7 14 0,0
21.02.2020 09:00:00 6,1 2,6 5,5 36 19 54 29 W 1019,3 14 0,0
21.02.2020 08:00:00 5,7 2,2 4,9 40 21 54 29 W 1018,7 13 0,0
21.02.2020 07:00:00 5,5 2,3 4,8 36 19 54 29 W 1017,8 12 0,0
21.02.2020 06:00:00 5,4 2,0 4,9 40 21 61 33 W 1017,5 12 0,0
21.02.2020 05:00:00 5,8 1,9 5,2 43 23 61 33 W 1016,7 13 0,0
21.02.2020 04:00:00 5,8 1,9 5,2 40 21 65 35 W 1015,9 12 0,0
21.02.2020 03:00:00 5,9 1,5 5,2 43 23 68 37 W 1014,7 14 0,0
21.02.2020 02:00:00 5,7 1,6 5,2 43 23 68 37 W 1013,9 15 0,0
21.02.2020 01:00:00 5,7 1,4 4,9 43 23 65 35 W 1012,7 16 0,0
21.02.2020 00:00:00 5,4 1,2 4,7 40 21 68 37 W 1011,5 16 0,0
20.02.2020 23:00:00 5,9 1,2 5,0 47 25 68 37 W 1010,1 17 0,0
20.02.2020 22:00:00 5,1 1,9 4,2 36 19 61 33 W 1008,4 26 0,1
20.02.2020 21:00:00 4,6 2,9 4,3 40 21 65 35 WNW 1007,5 10 0,3
20.02.2020 20:00:00 5,7 3,5 5,1 29 16 61 33 W 1005,8 23 0,4
20.02.2020 19:00:00 5,8 4,3 5,4 43 23 76 41 WNW 1004,1 8 0,8
20.02.2020 18:00:00 7,9 7,0 7,6 58 31 76 41 SSW 1000,8 4,1 2,8
20.02.2020 17:00:00 8,0 6,7 7,6 58 31 76 41 SSW 1001,9 4,4 1,0
20.02.2020 16:00:00 8,3 6,2 8,0 61 33 76 41 SSW 1003,2 7 0,0
20.02.2020 15:00:00 8,7 6,2 8,4 58 31 76 41 SSW 1004,4 17 0,0
20.02.2020 14:00:00 8,8 6,5 8,9 58 31 76 41 SSW 1005,6 17 0,0
20.02.2020 13:00:00 8,7 6,2 8,6 58 31 76 41 SW 1006,7 17 0,0
20.02.2020 12:00:00 8,3 6,3 8,3 54 29 72 39 SW 1007,7 15 0,0
20.02.2020 11:00:00 8,1 6,6 7,9 47 25 65 35 SW 1008,2 12 0,0
20.02.2020 10:00:00 7,7 6,6 7,5 47 25 58 31 SSW 1008,7 11 0,0
20.02.2020 09:00:00 7,7 6,7 7,4 43 23 58 31 SSW 1009,1 10 0,0
20.02.2020 08:00:00 7,7 6,7 7,3 43 23 54 29 SW 1009,3 9 0,0
20.02.2020 07:00:00 7,8 6,8 7,4 43 23 54 29 SW 1009,4 9 0,0
20.02.2020 06:00:00 7,6 6,7 7,2 40 21 50 27 SW 1009,9 8 0,0
20.02.2020 05:00:00 7,5 6,7 7,2 40 21 54 29 SW 1010,4 8 0,0
20.02.2020 04:00:00 7,5 6,8 7,1 40 21 50 27 SW 1010,6 9 0,2
20.02.2020 03:00:00 7,1 6,6 6,8 40 21 47 25 SSW 1011,2 8 0,9
20.02.2020 02:00:00 6,3 5,8 6,1 36 19 47 25 S 1012,2 3,1 0,8
20.02.2020 01:00:00 6,4 5,8 6,0 36 19 47 25 SSW 1012,9 7 1,0
20.02.2020 00:00:00 5,8 5,2 5,7 36 19 47 25 S 1013,8 5 0,4
19.02.2020 23:00:00 5,9 5,2 5,7 32 18 43 23 SSW 1014,5 8 0,3
19.02.2020 22:00:00 6,0 4,6 5,7 32 18 47 25 SW 1015,4 8 0,0
19.02.2020 21:00:00 6,2 4,1 5,9 29 16 36 19 SSW 1016,0 15 0,0
19.02.2020 20:00:00 5,8 3,3 5,3 29 16 36 19 SW 1016,4 17 0,0
19.02.2020 19:00:00 5,1 2,0 4,2 25 14 36 19 WSW 1016,9 19 0,0
19.02.2020 18:00:00 5,1 1,8 4,5 25 14 40 21 WSW 1016,9 15 0,0
19.02.2020 17:00:00 5,7 2,2 5,0 25 14 47 25 W 1016,8 15 0,0
19.02.2020 16:00:00 6,2 2,5 6,1 32 18 50 27 W 1016,7 15 0,0
19.02.2020 15:00:00 6,8 2,5 7,2 32 18 50 27 W 1016,4 16 0,0
19.02.2020 14:00:00 6,5 2,2 6,2 32 18 50 27 W 1016,2 15 0,0
19.02.2020 13:00:00 6,6 2,7 6,3 36 19 50 27 W 1015,7 13 0,0
19.02.2020 12:00:00 6,5 2,3 6,2 36 19 54 29 W 1015,2 15 0,0
19.02.2020 11:00:00 6,4 2,5 6,0 40 21 58 31 W 1014,1 13 0,0
19.02.2020 10:00:00 6,3 2,5 5,9 36 19 61 33 W 1013,0 14 0,0
19.02.2020 09:00:00 5,9 1,9 5,4 40 21 58 31 W 1012,4 15 0,0
19.02.2020 08:00:00 5,9 2,0 4,9 36 19 58 31 W 1011,6 16 0,0
19.02.2020 07:00:00 5,7 1,7 4,7 40 21 61 33 W 1010,9 17 0,0
19.02.2020 06:00:00 5,5 1,4 4,3 36 19 54 29 W 1010,5 17 0,2
19.02.2020 05:00:00 5,8 1,3 5,0 40 21 58 31 WNW 1009,4 18 0,0
19.02.2020 04:00:00 6,0 1,6 5,3 36 19 54 29 W 1008,9 17 0,0
19.02.2020 03:00:00 5,8 1,8 4,9 32 18 54 29 W 1008,8 18 0,0
19.02.2020 02:00:00 6,0 2,5 5,2 36 19 50 27 W 1008,4 19 0,0
19.02.2020 01:00:00 6,2 4,1 5,6 29 16 43 23 W 1008,1 20 0,0
19.02.2020 00:00:00 5,0 3,4 4,6 25 14 61 33 WSW 1008,0 31 2,1
18.02.2020 23:00:00 5,3 4,2 4,0 47 25 72 39 WSW 1008,6 2,7 3,9
18.02.2020 22:00:00 7,5 5,6 7,2 43 23 61 33 SW 1009,5 9 0,0
18.02.2020 21:00:00 7,7 5,7 7,3 47 25 61 33 SW 1010,3 9 0,0
18.02.2020 20:00:00 7,5 5,5 6,9 47 25 61 33 SW 1011,4 9 0,0
18.02.2020 19:00:00 7,3 5,0 6,9 40 21 58 31 SW 1012,4 11 0,0
18.02.2020 18:00:00 7,4 4,8 7,0 43 23 58 31 SW 1012,9 12 0,0
18.02.2020 17:00:00 7,2 4,8 6,7 43 23 58 31 SW 1013,7 12 0,0
18.02.2020 16:00:00 7,1 4,4 6,9 43 23 54 29 WSW 1014,4 13 0,0
18.02.2020 15:00:00 7,1 3,8 7,0 40 21 58 31 WSW 1014,9 16 0,0
18.02.2020 14:00:00 7,2 3,5 7,2 47 25 58 31 WSW 1015,3 16 0,0
18.02.2020 13:00:00 6,8 3,0 7,0 47 25 61 33 WSW 1015,4 20 0,0
18.02.2020 12:00:00 7,0 3,2 7,1 47 25 58 31 WSW 1015,7 19 0,0
18.02.2020 11:00:00 7,1 3,3 - 43 23 58 31 WSW 1015,5 16 0,0
18.02.2020 10:00:00 6,5 2,4 6,3 36 19 - - WSW 1015,4 16 0,0
18.02.2020 09:00:00 6,1 1,7 5,5 43 23 61 33 W 1015,1 19 0,0
18.02.2020 08:00:00 5,8 1,8 5,3 36 19 61 33 W 1014,4 16 0,0
18.02.2020 07:00:00 6,1 1,6 - 40 21 68 37 W 1013,7 16 0,0
18.02.2020 06:00:00 6,1 2,0 - 47 25 65 35 W 1013,2 17 0,0
18.02.2020 05:00:00 5,7 1,9 5,1 43 23 65 35 W 1012,7 14 0,0
18.02.2020 04:00:00 6,2 1,5 - 43 23 - - W 1012,4 19 0,0
18.02.2020 03:00:00 6,2 1,6 5,5 43 23 65 35 W 1012,1 19 0,0
18.02.2020 02:00:00 6,7 1,4 5,8 36 19 61 33 W 1011,6 17 0,0
18.02.2020 01:00:00 7,3 3,6 6,5 40 21 58 31 W 1010,8 17 0,0
18.02.2020 00:00:00 7,1 4,5 6,5 32 18 54 29 WSW 1010,1 14 0,0
17.02.2020 23:00:00 7,3 5,1 6,7 36 19 50 27 WSW 1009,5 15 0,0
17.02.2020 22:00:00 7,1 4,3 6,6 29 16 54 29 WSW 1009,0 26 0,0
17.02.2020 21:00:00 7,6 5,8 7,0 36 19 43 23 WSW 1008,5 11 0,0
17.02.2020 20:00:00 7,1 5,3 6,5 32 18 47 25 WSW 1008,2 11 0,0
17.02.2020 19:00:00 7,9 5,5 7,4 36 19 54 29 WSW 1007,6 11 0,0
17.02.2020 18:00:00 7,9 5,2 7,4 40 21 58 31 SW 1007,0 11 0,0
17.02.2020 17:00:00 7,8 4,8 7,4 43 23 65 35 SW 1006,5 11 0,0
17.02.2020 16:00:00 7,9 4,6 7,6 50 27 68 37 WSW 1006,3 12 0,0
17.02.2020 15:00:00 8,2 4,6 8,0 47 25 65 35 SW 1005,9 13 0,0
17.02.2020 14:00:00 8,2 4,3 8,5 54 29 68 37 SW 1005,6 17 0,0
17.02.2020 13:00:00 8,0 5,7 8,0 43 23 65 35 SW 1005,4 9 0,0
17.02.2020 12:00:00 8,5 6,0 8,8 47 25 65 35 SW 1005,3 9 0,0
17.02.2020 11:00:00 8,7 5,1 8,4 50 27 65 35 SW 1005,3 9 0,0
17.02.2020 10:00:00 7,9 4,6 7,6 50 27 65 35 SW 1005,1 9 0,0
17.02.2020 09:00:00 7,5 3,6 6,8 50 27 68 37 SW 1004,9 10 0,0
17.02.2020 08:00:00 7,3 3,0 6,5 54 29 72 39 SW 1004,2 10 0,0
17.02.2020 07:00:00 7,1 2,9 6,2 54 29 76 41 SW 1003,5 9 0,0
17.02.2020 06:00:00 6,8 2,8 6,1 54 29 79 43 WSW 1003,5 10 0,0
17.02.2020 05:00:00 6,7 2,4 6,1 58 31 79 43 WSW 1003,1 11 0,0
17.02.2020 04:00:00 6,7 2,8 6,1 58 31 83 45 WSW 1002,3 11 0,0
17.02.2020 03:00:00 6,8 2,7 6,1 54 29 86 47 WSW 1001,0 12 0,0
17.02.2020 02:00:00 7,5 3,3 7,0 61 33 83 45 WSW 999,7 11 0,0
17.02.2020 01:00:00 7,5 4,1 6,8 50 27 68 37 WSW 998,9 11 0,0
17.02.2020 00:00:00 7,5 4,6 6,8 47 25 68 37 WSW 998,1 12 0,0
16.02.2020 23:00:00 7,4 4,3 6,8 50 27 72 39 WSW 997,4 15 0,0
16.02.2020 22:00:00 7,6 4,8 7,1 50 27 72 39 WSW 996,1 13 0,0
16.02.2020 21:00:00 8,0 5,5 7,4 58 31 72 39 WSW 995,5 17 0,0
16.02.2020 20:00:00 7,7 6,2 7,1 40 21 54 29 SW 994,6 17 0,0
16.02.2020 19:00:00 7,6 6,4 7,2 40 21 58 31 WSW 992,8 9 0,9
16.02.2020 18:00:00 7,9 6,6 7,5 40 21 58 31 W 992,9 9 2,0
16.02.2020 17:00:00 8,3 7,9 8,1 32 18 47 25 WSW 991,8 4,6 3,0

tt = Température de l'air
td = dewpoint
tt 5cm = Température de l'air 5cm
ff = Vitesse du vent
fx = gusts
dd = Direction du vent
ppp = reduced air pressure
vv = visibility
rr = Quantités de précipitations

stations d'obs. à proximité